Time,TemperatureF,DewpointF,PressureIn,WindDirection,WindDirectionDegrees,WindSpeedMPH,WindSpeedGustMPH,Humidity,HourlyPrecipIn,Conditions,Clouds,dailyrainin,SoftwareType,DateUTC
2013-09-07 00:23:00,71.0,67.0,-100.00,SW,215,2.0,7.0,88,-99.99,,,-99.99,,2013-09-07 05:23:00,
2013-09-07 00:33:00,71.0,67.0,-100.00,SW,215,2.0,7.0,88,-99.99,,,-99.99,,2013-09-07 05:33:00,
2013-09-07 00:42:00,71.0,67.0,-100.00,SW,215,2.0,7.0,88,-99.99,,,-99.99,,2013-09-07 05:42:00,
2013-09-07 00:52:00,71.0,67.0,-100.00,SW,215,2.0,7.0,88,-99.99,,,-99.99,,2013-09-07 05:52:00,
2013-09-07 01:02:00,71.0,67.0,-100.00,SW,215,2.0,7.0,88,-99.99,,,-99.99,,2013-09-07 06:02:00,
2013-09-07 01:22:00,71.0,66.0,-100.00,SE,130,2.0,6.0,85,-99.99,,,-99.99,,2013-09-07 06:22:00,
2013-09-07 01:33:00,71.0,66.0,-100.00,SE,130,2.0,6.0,85,-99.99,,,-99.99,,2013-09-07 06:33:00,
2013-09-07 01:43:00,71.0,66.0,-100.00,SE,130,2.0,6.0,85,-99.99,,,-99.99,,2013-09-07 06:43:00,
2013-09-07 01:52:00,71.0,66.0,-100.00,SE,130,2.0,6.0,85,-99.99,,,-99.99,,2013-09-07 06:52:00,
2013-09-07 02:22:00,69.0,67.0,-100.00,SW,215,2.0,6.0,91,-99.99,,,-99.99,,2013-09-07 07:22:00,
2013-09-07 02:33:00,69.0,67.0,-100.00,SW,215,2.0,6.0,91,-99.99,,,-99.99,,2013-09-07 07:33:00,
2013-09-07 02:43:00,69.0,67.0,-100.00,SW,215,2.0,6.0,91,-99.99,,,-99.99,,2013-09-07 07:43:00,
2013-09-07 02:52:00,69.0,67.0,-100.00,SW,215,2.0,6.0,91,-99.99,,,-99.99,,2013-09-07 07:52:00,
2013-09-07 03:02:00,69.0,67.0,-100.00,SW,215,2.0,6.0,91,-99.99,,,-99.99,,2013-09-07 08:02:00,
2013-09-07 03:22:00,68.0,67.0,-100.00,SSW,195,1.0,3.0,97,-99.99,,,-99.99,,2013-09-07 08:22:00,
2013-09-07 03:32:00,68.0,67.0,-100.00,SSW,195,1.0,3.0,97,-99.99,,,-99.99,,2013-09-07 08:32:00,
2013-09-07 03:43:00,68.0,67.0,-100.00,SSW,195,1.0,3.0,97,-99.99,,,-99.99,,2013-09-07 08:43:00,
2013-09-07 03:53:00,68.0,67.0,-100.00,SSW,195,1.0,3.0,97,-99.99,,,-99.99,,2013-09-07 08:53:00,
2013-09-07 04:02:00,68.0,67.0,-100.00,SSW,195,1.0,3.0,97,-99.99,,,-99.99,,2013-09-07 09:02:00,
2013-09-07 04:21:00,67.0,66.0,-100.00,WNW,295,0.0,1.0,98,-99.99,,,-99.99,,2013-09-07 09:21:00,
2013-09-07 04:32:00,67.0,66.0,-100.00,WNW,295,0.0,1.0,98,-99.99,,,-99.99,,2013-09-07 09:32:00,
2013-09-07 04:42:00,67.0,66.0,-100.00,WNW,295,0.0,1.0,98,-99.99,,,-99.99,,2013-09-07 09:42:00,
2013-09-07 04:52:00,67.0,66.0,-100.00,WNW,295,0.0,1.0,98,-99.99,,,-99.99,,2013-09-07 09:52:00,
2013-09-07 05:02:00,67.0,66.0,-100.00,WNW,295,0.0,1.0,98,-99.99,,,-99.99,,2013-09-07 10:02:00,
2013-09-07 05:03:00,66.0,65.0,-100.00,SSW,195,0.0,2.0,98,-99.99,,,-99.99,,2013-09-07 10:03:00,
2013-09-07 05:21:00,66.0,65.0,-100.00,SSW,195,0.0,2.0,98,-99.99,,,-99.99,,2013-09-07 10:21:00,
2013-09-07 05:31:00,66.0,65.0,-100.00,SSW,195,0.0,2.0,98,-99.99,,,-99.99,,2013-09-07 10:31:00,
2013-09-07 05:41:00,66.0,65.0,-100.00,SSW,195,0.0,2.0,98,-99.99,,,-99.99,,2013-09-07 10:41:00,
2013-09-07 05:52:00,66.0,65.0,-100.00,SSW,195,0.0,2.0,98,-99.99,,,-99.99,,2013-09-07 10:52:00,
2013-09-07 06:23:00,63.0,63.0,-100.00,SE,140,0.0,0.0,99,-99.99,,,-99.99,,2013-09-07 11:23:00,
2013-09-07 06:33:00,63.0,63.0,-100.00,SE,140,0.0,0.0,99,-99.99,,,-99.99,,2013-09-07 11:33:00,
2013-09-07 06:43:00,63.0,63.0,-100.00,SE,140,0.0,0.0,99,-99.99,,,-99.99,,2013-09-07 11:43:00,
2013-09-07 06:52:00,63.0,63.0,-100.00,SE,140,0.0,0.0,99,-99.99,,,-99.99,,2013-09-07 11:52:00,
2013-09-07 07:02:00,63.0,63.0,-100.00,SE,140,0.0,0.0,99,-99.99,,,-99.99,,2013-09-07 12:02:00,
2013-09-07 07:42:00,63.0,63.0,-100.00,SSE,155,1.0,1.0,99,-99.99,,,-99.99,,2013-09-07 12:42:00,
2013-09-07 07:52:00,63.0,63.0,-100.00,SSE,155,1.0,1.0,99,-99.99,,,-99.99,,2013-09-07 12:52:00,
2013-09-07 08:02:00,63.0,63.0,-100.00,SSE,155,1.0,1.0,99,-99.99,,,-99.99,,2013-09-07 13:02:00,
2013-09-07 08:21:00,68.0,68.0,-100.00,WNW,300,0.0,1.0,99,-99.99,,,-99.99,,2013-09-07 13:21:00,
2013-09-07 08:32:00,68.0,68.0,-100.00,WNW,300,0.0,1.0,99,-99.99,,,-99.99,,2013-09-07 13:32:00,
2013-09-07 08:42:00,68.0,68.0,-100.00,WNW,300,0.0,1.0,99,-99.99,,,-99.99,,2013-09-07 13:42:00,
2013-09-07 08:52:00,68.0,68.0,-100.00,WNW,300,0.0,1.0,99,-99.99,,,-99.99,,2013-09-07 13:52:00,
2013-09-07 09:02:00,68.0,68.0,-100.00,WNW,300,0.0,1.0,99,-99.99,,,-99.99,,2013-09-07 14:02:00,
2013-09-07 09:22:00,73.0,68.0,-100.00,North,0,4.0,7.0,84,-99.99,,,-99.99,,2013-09-07 14:22:00,
2013-09-07 09:32:00,73.0,68.0,-100.00,North,0,4.0,7.0,84,-99.99,,,-99.99,,2013-09-07 14:32:00,
2013-09-07 09:42:00,73.0,68.0,-100.00,North,0,4.0,7.0,84,-99.99,,,-99.99,,2013-09-07 14:42:00,
2013-09-07 09:52:00,73.0,68.0,-100.00,North,0,4.0,7.0,84,-99.99,,,-99.99,,2013-09-07 14:52:00,
2013-09-07 10:02:00,73.0,68.0,-100.00,North,0,4.0,7.0,84,-99.99,,,-99.99,,2013-09-07 15:02:00,
2013-09-07 10:23:00,77.0,68.0,-100.00,North,0,4.0,7.0,74,-99.99,,,-99.99,,2013-09-07 15:23:00,
2013-09-07 10:34:00,77.0,68.0,-100.00,North,0,4.0,7.0,74,-99.99,,,-99.99,,2013-09-07 15:34:00,
2013-09-07 10:44:00,77.0,68.0,-100.00,North,0,4.0,7.0,74,-99.99,,,-99.99,,2013-09-07 15:44:00,
2013-09-07 10:54:00,77.0,68.0,-100.00,North,0,4.0,7.0,74,-99.99,,,-99.99,,2013-09-07 15:54:00,
2013-09-07 12:24:00,81.0,67.0,-100.00,NNW,345,9.0,16.0,63,-99.99,,,-99.99,,2013-09-07 17:24:00,
2013-09-07 12:34:00,81.0,67.0,-100.00,NNW,345,9.0,16.0,63,-99.99,,,-99.99,,2013-09-07 17:34:00,
2013-09-07 12:43:00,81.0,67.0,-100.00,NNW,345,9.0,16.0,63,-99.99,,,-99.99,,2013-09-07 17:43:00,
2013-09-07 12:52:00,81.0,67.0,-100.00,NNW,345,9.0,16.0,63,-99.99,,,-99.99,,2013-09-07 17:52:00,
2013-09-07 13:01:00,81.0,67.0,-100.00,NNW,345,9.0,16.0,63,-99.99,,,-99.99,,2013-09-07 18:01:00,
2013-09-07 13:43:00,84.0,66.0,-100.00,NE,55,7.0,13.0,55,-99.99,,,-99.99,,2013-09-07 18:43:00,
2013-09-07 13:52:00,84.0,66.0,-100.00,NE,55,7.0,13.0,55,-99.99,,,-99.99,,2013-09-07 18:52:00,
2013-09-07 14:02:00,84.0,66.0,-100.00,NE,55,7.0,13.0,55,-99.99,,,-99.99,,2013-09-07 19:02:00,
2013-09-07 14:22:00,82.0,64.0,-100.00,North,10,9.0,17.0,55,-99.99,,,-99.99,,2013-09-07 19:22:00,
2013-09-07 14:32:00,82.0,64.0,-100.00,North,10,9.0,17.0,55,-99.99,,,-99.99,,2013-09-07 19:32:00,
2013-09-07 14:42:00,82.0,64.0,-100.00,North,10,9.0,17.0,55,-99.99,,,-99.99,,2013-09-07 19:42:00,
2013-09-07 14:52:00,82.0,64.0,-100.00,North,10,9.0,17.0,55,-99.99,,,-99.99,,2013-09-07 19:52:00,
2013-09-07 15:02:00,82.0,64.0,-100.00,North,10,9.0,17.0,55,-99.99,,,-99.99,,2013-09-07 20:02:00,
2013-09-07 15:22:00,82.0,65.0,-100.00,NNE,20,7.0,17.0,57,-99.99,,,-99.99,,2013-09-07 20:22:00,
2013-09-07 15:32:00,82.0,65.0,-100.00,NNE,20,7.0,17.0,57,-99.99,,,-99.99,,2013-09-07 20:32:00,
2013-09-07 15:42:00,82.0,65.0,-100.00,NNE,20,7.0,17.0,57,-99.99,,,-99.99,,2013-09-07 20:42:00,
2013-09-07 15:53:00,82.0,65.0,-100.00,NNE,20,7.0,17.0,57,-99.99,,,-99.99,,2013-09-07 20:53:00,
2013-09-07 16:02:00,82.0,65.0,-100.00,NNE,20,7.0,17.0,57,-99.99,,,-99.99,,2013-09-07 21:02:00,
2013-09-07 16:04:00,74.0,65.0,-100.00,NNE,15,11.0,20.0,74,-99.99,,,-99.99,,2013-09-07 21:04:00,
2013-09-07 16:22:00,74.0,65.0,-100.00,NNE,15,11.0,20.0,74,-99.99,,,-99.99,,2013-09-07 21:22:00,
2013-09-07 16:34:00,74.0,65.0,-100.00,NNE,15,11.0,20.0,74,-99.99,,,-99.99,,2013-09-07 21:34:00,
2013-09-07 16:44:00,74.0,65.0,-100.00,NNE,15,11.0,20.0,74,-99.99,,,-99.99,,2013-09-07 21:44:00,
2013-09-07 16:54:00,74.0,65.0,-100.00,NNE,15,11.0,20.0,74,-99.99,,,-99.99,,2013-09-07 21:54:00,
2013-09-07 17:03:00,72.0,65.0,-100.00,NNE,25,7.0,16.0,80,-99.99,,,-99.99,,2013-09-07 22:03:00,
2013-09-07 17:24:00,72.0,65.0,-100.00,NNE,25,7.0,16.0,80,-99.99,,,-99.99,,2013-09-07 22:24:00,
2013-09-07 17:34:00,72.0,65.0,-100.00,NNE,25,7.0,16.0,80,-99.99,,,-99.99,,2013-09-07 22:34:00,
2013-09-07 17:43:00,72.0,65.0,-100.00,NNE,25,7.0,16.0,80,-99.99,,,-99.99,,2013-09-07 22:43:00,
2013-09-07 17:53:00,72.0,65.0,-100.00,NNE,25,7.0,16.0,80,-99.99,,,-99.99,,2013-09-07 22:53:00,
2013-09-07 18:23:00,69.0,65.0,-100.00,NNE,25,9.0,17.0,87,-99.99,,,-99.99,,2013-09-07 23:23:00,
2013-09-07 18:34:00,69.0,65.0,-100.00,NNE,25,9.0,17.0,87,-99.99,,,-99.99,,2013-09-07 23:34:00,
2013-09-07 18:42:00,69.0,65.0,-100.00,NNE,25,9.0,17.0,87,-99.99,,,-99.99,,2013-09-07 23:42:00,
2013-09-07 18:53:00,69.0,65.0,-100.00,NNE,25,9.0,17.0,87,-99.99,,,-99.99,,2013-09-07 23:53:00,
2013-09-07 19:02:00,69.0,65.0,-100.00,NNE,25,9.0,17.0,87,-99.99,,,-99.99,,2013-09-08 00:02:00,
2013-09-07 19:22:00,65.0,63.0,-100.00,NE,40,7.0,13.0,91,-99.99,,,-99.99,,2013-09-08 00:22:00,
2013-09-07 19:32:00,65.0,63.0,-100.00,NE,40,7.0,13.0,91,-99.99,,,-99.99,,2013-09-08 00:32:00,
2013-09-07 19:43:00,65.0,63.0,-100.00,NE,40,7.0,13.0,91,-99.99,,,-99.99,,2013-09-08 00:43:00,
2013-09-07 19:52:00,65.0,63.0,-100.00,NE,40,7.0,13.0,91,-99.99,,,-99.99,,2013-09-08 00:52:00,
2013-09-07 20:01:00,65.0,63.0,-100.00,NE,40,7.0,13.0,91,-99.99,,,-99.99,,2013-09-08 01:01:00,
2013-09-07 20:22:00,63.0,60.0,-100.00,NE,50,4.0,9.0,90,-99.99,,,-99.99,,2013-09-08 01:22:00,
2013-09-07 20:32:00,63.0,60.0,-100.00,NE,50,4.0,9.0,90,-99.99,,,-99.99,,2013-09-08 01:32:00,
2013-09-07 20:42:00,63.0,60.0,-100.00,NE,50,4.0,9.0,90,-99.99,,,-99.99,,2013-09-08 01:42:00,
2013-09-07 20:52:00,63.0,60.0,-100.00,NE,50,4.0,9.0,90,-99.99,,,-99.99,,2013-09-08 01:52:00,
2013-09-07 21:02:00,63.0,60.0,-100.00,NE,50,4.0,9.0,90,-99.99,,,-99.99,,2013-09-08 02:02:00,
2013-09-07 21:23:00,60.0,58.0,-100.00,NE,55,3.0,10.0,91,-99.99,,,-99.99,,2013-09-08 02:23:00,
2013-09-07 21:32:00,60.0,58.0,-100.00,NE,55,3.0,10.0,91,-99.99,,,-99.99,,2013-09-08 02:32:00,
2013-09-07 21:43:00,60.0,58.0,-100.00,NE,55,3.0,10.0,91,-99.99,,,-99.99,,2013-09-08 02:43:00,
2013-09-07 21:52:00,60.0,58.0,-100.00,NE,55,3.0,10.0,91,-99.99,,,-99.99,,2013-09-08 02:52:00,
2013-09-07 22:02:00,60.0,58.0,-100.00,NE,55,3.0,10.0,91,-99.99,,,-99.99,,2013-09-08 03:02:00,
2013-09-07 22:44:00,58.0,53.0,-100.00,East,90,3.0,9.0,83,-99.99,,,-99.99,,2013-09-08 03:44:00,
2013-09-07 22:54:00,58.0,53.0,-100.00,East,90,3.0,9.0,83,-99.99,,,-99.99,,2013-09-08 03:54:00,
2013-09-07 23:02:00,-999.0,-99.9,-100.00,East,90,3.0,9.0,-999,-99.99,,,-99.99,,2013-09-08 04:02:00,
2013-09-07 23:03:00,56.0,52.0,-100.00,ENE,75,2.0,7.0,86,-99.99,,,-99.99,,2013-09-08 04:03:00,
2013-09-07 23:24:00,56.0,52.0,-100.00,ENE,75,2.0,7.0,86,-99.99,,,-99.99,,2013-09-08 04:24:00,
2013-09-07 23:34:00,56.0,52.0,-100.00,ENE,75,2.0,7.0,86,-99.99,,,-99.99,,2013-09-08 04:34:00,
2013-09-07 23:43:00,56.0,52.0,-100.00,ENE,75,2.0,7.0,86,-99.99,,,-99.99,,2013-09-08 04:43:00,
2013-09-07 23:54:00,56.0,52.0,-100.00,ENE,75,2.0,7.0,86,-99.99,,,-99.99,,2013-09-08 04:54:00,